Location: Miles
(41.4492°N, 81.6087°W)
Time: 07:08:32
(UTC+00:00)

Vanguard 2 - Visible Passes

Search period start: 19 September 2024 00:00
Search period end: 29 September 2024 00:00
Orbit: 552 x 2911 km, 32.9° (Epoch: 18 September)

Date Brightness Start Highest point End Pass type
(mag) Time Alt. Az. Time Alt. Az. Time Alt. Az.
19 Sep 10.2 07:41:02 10° ESE 07:41:02 10° ESE 07:41:07 10° ESE visible
19 Sep 8.6 09:42:09 25° SW 09:44:32 37° S 09:51:24 10° ESE visible
20 Sep 10.0 07:54:20 13° ESE 07:54:20 13° ESE 07:55:11 10° ESE visible
20 Sep 8.7 09:55:26 21° SW 09:58:19 35° S 10:05:08 10° ESE visible
21 Sep 9.7 08:07:38 16° ESE 08:07:38 16° ESE 08:09:09 10° ESE visible
21 Sep 8.9 10:08:45 17° WSW 10:12:09 32° S 10:18:46 10° SE visible
22 Sep 9.5 08:20:57 19° SE 08:20:57 19° SE 08:23:01 10° ESE visible
22 Sep 9.1 10:22:04 13° WSW 10:25:58 28° S 10:32:14 10° SE visible
23 Sep 9.3 08:34:18 21° SE 08:34:18 21° SE 08:36:48 10° ESE visible
23 Sep 9.3 10:35:39 10° WSW 10:39:48 23° SSW 10:45:29 10° SE visible
24 Sep 9.1 08:47:40 22° SSE 08:47:40 22° SSE 08:50:29 10° SE visible
25 Sep 9.0 09:01:04 21° SSE 09:01:04 21° SSE 09:04:02 10° SE visible
26 Sep 9.1 09:14:29 19° S 09:14:29 19° S 09:17:25 10° SE visible
27 Sep 9.2 09:27:56 16° S 09:27:56 16° S 09:30:29 10° SSE visible
28 Sep 9.4 09:41:24 12° SSW 09:41:24 12° SSW 09:42:58 10° S visible
